Bekescsaba, Hungary

2:09 AM CET on March 24, 2017 (GMT +0100)
Bekescsaba

Weather History for LHBC - August, 2014

Change the Weather History Date:

Thursday, August 21, 2014

  Actual Average (LRAR) Record (LRAR)
Temperature  
Mean Temperature 65 °F -  
Max Temperature 73 °F 81 °F 97 °F (2012)
Min Temperature 56 °F 59 °F 51 °F (2010)
Growing Degree Days 15 (Base 50)    
Moisture  
Dew Point 60 °F    
Average Humidity 82    
Maximum Humidity 100    
Minimum Humidity 56    
Precipitation  
Precipitation 0.01 in - - ()
Sea Level Pressure  
Sea Level Pressure 29.96 in    
Wind  
Wind Speed 4 mph ()    
Max Wind Speed 20 mph    
Max Gust Speed -    
Visibility 7.4 miles    
Events Fog , Thunderstorm    
Averages and records for this station are not official NWS values.
T = Trace of Precipitation, MM = Missing Value Source: Averaged Metar Reports

Daily Weather History Graph

Daily Weather History Graph

Search for Another Location

Airport or City:

Trip Planner

Search our weather history database for the weather conditions in past years. The results will help you decide how hot, cold, wet, or windy it might be!

Date:

Astronomy

Aug. 21, 2014 Rise Set
Actual Time 5:40 AM CEST 7:35 PM CEST
Civil Twilight 5:08 AM CEST 8:07 PM CEST
Nautical Twilight 4:28 AM CEST 8:47 PM CEST
Astronomical Twilight 3:44 AM CEST 9:31 PM CEST
Moon 1:48 AM CEST (8/21) 4:56 PM CEST (8/21)
Length of Visible Light 14h 59m
Length of Day
13h 54m
Waning Crescent, 15% of the Moon is Illuminated
Aug 21
Waning Crescent
Aug 25
New
Sep 2
First Quarter
Sep 9
Full
Sep 16
Last Quarter

Hourly Weather History & Observations

Time (CEST) Temp. Dew Point Humidity Pressure Visibility Wind Dir Wind Speed Gust Speed Precip Events Conditions
12:00 AM 60 °F 59 °F 95% 29.96 in - Calm Calm - -  
1:00 AM 60 °F 59 °F 94% 29.95 in - Calm Calm - -  
2:00 AM 59 °F 58 °F 95% 29.95 in - Calm Calm - -  
3:00 AM 59 °F 58 °F 97% 29.94 in - Calm Calm - -  
4:00 AM 59 °F 58 °F 95% 29.94 in - Calm Calm - -  
4:45 AM 59.0 °F 57.2 °F 94% 29.95 in 5.0 mi Calm Calm - N/A   Mostly Cloudy
5:00 AM 58 °F 57 °F 96% 29.94 in 5 mi Calm Calm - - Fog Patches of Fog
5:45 AM 59.0 °F 59.0 °F 100% 29.92 in 3.1 mi Calm Calm - N/A Fog Fog
6:00 AM 59 °F 58 °F 96% 29.92 in 3 mi Calm Calm - - Fog Patches of Fog
6:45 AM 60.8 °F 59.0 °F 94% 29.92 in 2.8 mi East 5.8 mph - N/A   Scattered Clouds
7:00 AM 60 °F 59 °F 97% 29.90 in 3 mi East 6.7 mph - -   Mist
7:45 AM 64.4 °F 62.6 °F 94% 29.92 in 6.2 mi SE 5.8 mph - N/A   Mostly Cloudy
8:00 AM 64 °F 62 °F 93% 29.90 in 7 mi SE 4.5 mph - -   Partly Cloudy
9:00 AM 64 °F 61 °F 87% 29.94 in - WNW 11.2 mph - -  
10:00 AM 64 °F 61 °F 86% 29.94 in - North 4.5 mph - -  
10:45 AM 64.4 °F 60.8 °F 88% 29.95 in 6.2 mi Calm Calm - N/A   Overcast
11:00 AM 65 °F 61 °F 83% 29.94 in 12 mi Calm Calm - -   Partly Cloudy
12:00 PM 67 °F 62 °F 80% 29.95 in - SSW 2.2 mph - -  
12:45 PM 69.8 °F 64.4 °F 83% 29.95 in 6.2 mi WSW 8.1 mph - N/A   Mostly Cloudy
1:00 PM 69 °F 64 °F 79% 29.95 in 14 mi WSW 8.9 mph - - Thunderstorm Light Thunderstorm
1:45 PM 71.6 °F 64.4 °F 78% 29.98 in 6.2 mi West 17.3 mph - N/A   Mostly Cloudy
2:00 PM 71 °F 64 °F 71% 29.95 in 16 mi West 15.7 mph - -   Partly Cloudy
2:45 PM 73.4 °F 62.6 °F 69% 29.98 in 6.2 mi WSW 17.3 mph - N/A   Mostly Cloudy
3:00 PM 73 °F 62 °F 61% 29.96 in 19 mi WSW 17.9 mph - -   Partly Cloudy
4:00 PM 70 °F 61 °F 65% 29.96 in - West 20.1 mph - -  
4:45 PM 69.8 °F 59.0 °F 68% 29.98 in 6.2 mi West 13.8 mph - N/A   Scattered Clouds
5:00 PM 70 °F 59 °F 61% 29.97 in 31 mi West 13.4 mph - -   Partly Cloudy
6:00 PM 70 °F 58 °F 56% 29.98 in - West 11.2 mph - -  
7:00 PM 68 °F 57 °F 58% 29.98 in - West 8.9 mph - -  
7:45 PM 66.2 °F 57.2 °F 73% 30.01 in 6.2 mi West 4.6 mph - N/A   Scattered Clouds
8:00 PM 66 °F 58 °F 67% 30.00 in 25 mi West 4.5 mph - -   Partly Cloudy
9:00 PM 64 °F 57 °F 72% 30.03 in - WNW 6.7 mph - -  
10:00 PM 60 °F 56 °F 81% 30.06 in - NE 6.7 mph - -  
11:00 PM 56 °F 54 °F 91% 30.07 in - North 2.2 mph - -